demanda_dia;demanda_fecha_dia;demanda_hora;temperatura_grados_centigrados_demanda;potencia_ demanda_mega_watt 
domingo;01/01/2017;22:15;31,5;739
lunes;02/01/2017;21:45;36,1;896
martes;03/01/2017;18:00;34,3;902
miercoles;04/01/2017;21:30;31,4;847
jueves;05/01/2017;22:00;30,3;828
viernes;06/01/2017;22:00;35,6;912
sabado;07/01/2017;14:00;37;898
domingo;08/01/2017;23:30;35,1;823
lunes;09/01/2017;13:00;36,8;951
martes;10/01/2017;22:15;33,1;871
miercoles;11/01/2017;22:00;37,3;957
jueves;12/01/2017;14:00;38,4;1041
viernes;13/01/2017;1:00;33,6;922
sabado;14/01/2017;21:45;37,4;891
domingo;15/01/2017;22:45;33,7;811
lunes;16/01/2017;22:00;38,2;946
martes;17/01/2017;23:00;37,9;959
miercoles;18/01/2017;22:00;33;1010
jueves;19/01/2017;13:45;38,5;1107
viernes;20/01/2017;14:00;38,4;1073
sabado;21/01/2017;13:00;38,6;987
domingo;22/01/2017;14:00;38,2;809
lunes;23/01/2017;21:15;33,9;909
martes;24/01/2017;22:00;32,6;882
miercoles;25/01/2017;21:45;33,4;905
jueves;26/01/2017;21:45;32,9;889
viernes;27/01/2017;17:30;38;951
sabado;28/01/2017;21:45;41,4;960
domingo;29/01/2017;23:30;41;931
lunes;30/01/2017;16:00;38;1009
martes;31/01/2017;14:00�;36,4;977
miercoles;01/02/2017;21:15;33,3;920
jueves;02/02/2017;22:15;31,7;886
viernes;03/02/2017;11:00;31,3;843
sabado;04/02/2017;1:00;25,4;704
domingo;05/02/2017;22:15;24,4;654
lunes;06/02/2017;21:45;31,1;803
martes;07/02/2017;21:45;32,2;839
miercoles;08/02/2017;21:15;34,2;859
jueves;09/02/2017;21:30;27,9;787
viernes;10/02/2017;21:30;24,6;737
sabado;11/02/2017;21:30;32,7;747
domingo;12/02/2017;22:00;33,7;719
lunes;13/02/2017;21:30;32,8;809
martes;14/02/2017;21:15;34,5;844
miercoles;15/02/2017;13:00;32,9;853
jueves;16/02/2017;21:15;33,7;864
viernes;17/02/2017;21:00;30,5;838
sabado;18/02/2017;21:15;34,1;820
domingo;19/02/2017;22:15;36,5;812
lunes;20/02/2017;21:45;36,9;964
martes;21/02/2017;21:45;38,1;1021
miercoles;22/02/2017;14:00;38,4;1063
jueves;23/02/2017;18:00;40,2;1063
viernes;24/02/2017;15:00;39,5;1086
sabado;25/02/2017;21:45;30,3;789
domingo;26/02/2017;21:00;32,4;719
lunes;27/02/2017;21:45;35,3;812
martes;28/02/2017;21:15;37;877
miercoles;01/03/2017;20:45;32,6;912
jueves;02/03/2017;12:00;26,7;842
viernes;03/03/2017;21:00;26,9;787
sabado;04/03/2017;20:45;29,6;748
domingo;05/03/2017;21:15;30,7;738
lunes;06/03/2017;21:00;27,6;823
martes;07/03/2017;21:30;24,8;815
miercoles;08/03/2017;20:45;33,4;908
jueves;09/03/2017;21:00;28,3;822
viernes;10/03/2017;21:00;27,5;786
sabado;11/03/2017;20:45;28,4;740
domingo;12/03/2017;21:45;26,8;696
lunes;13/03/2017;20:45;32,2;804
martes;14/03/2017;12:00;31,8;763
miercoles;15/03/2017;20:30;28,9;814
jueves;16/03/2017;21:00;24,2;793
viernes;17/03/2017;20:30;28,2;801
sabado;18/03/2017;20:30;29,8;753
domingo;19/03/2017;21:15;30,1;705
lunes;20/03/2017;20:45;26,4;761
martes;21/03/2017;20:30;29,2;788
miercoles;22/03/2017;20:30;30,2;791
jueves;23/03/2017;20:45;32,6;823
viernes;24/03/2017;21:00;33,1;780
sabado;25/03/2017;20:30;32,3;772
domingo;26/03/2017;21:15;30;732
lunes;27/03/2017;20:15;30,7;833
martes;28/03/2017;21:00;23,1;764
miercoles;29/03/2017;20:45;22,1;763
jueves;30/03/2017;20:30;24,1;755
viernes;31/03/2017;20:15;23,1;760
sabado;01/04/2017;20:15;25,3;752
domingo;02/04/2017;21:30;23,6;700
lunes;03/04/2017;20:45;21,8;771
martes;04/04/2017;20:45;28,3;755
miercoles;05/04/2017;20:30;26,2;778
jueves;06/04/2017;20:30;25,9;785
viernes;07/04/2017;20:15;20,1;775
sabado;08/04/2017;22:30;20,2;787
domingo;09/04/2017;21:30;20,7;707
lunes;10/04/2017;21:30;26,4;782
martes;11/04/2017;20:15;25,6;805
miercoles;12/04/2017;20:15;20,8;793
jueves;13/04/2017;20:30;24,8;768
viernes;14/04/2017;21:00;24,4;701
sabado;15/04/2017;20:30;17,9;730
domingo;16/04/2017;21:45;16,3;707
lunes;17/04/2017;22:00;19;856
martes;18/04/2017;21:00;16,8;789
miercoles;19/04/2017;16:00;23,4;852
jueves;20/04/2017;1:00;22,7;749
viernes;21/04/2017;20:45;18,8;792
sabado;22/04/2017;20:30;24,5;792
domingo;23/04/2017;21:45;23,1;707
lunes;24/04/2017;20:00;20,2;764
martes;25/04/2017;20:15;18,3;786
miercoles;26/04/2017;20:15;18,9;799
jueves;27/04/2017;20:30;22,9;781
viernes;28/04/2017;20:45;25,6;751
sabado;29/04/2017;20:45;25,3;725
domingo;30/04/2017;21:15;25,3;675
lunes;01/05/2017;20:45;25,2;674
martes;02/05/2017;20:45;25,6;751
miercoles;03/05/2017;20:45;22,4;758
jueves;04/05/2017;20:30;23,7;771
viernes;05/05/2017;21:00;24,4;757
sabado;06/05/2017;20:45;24,1;714
domingo;07/05/2017;20:45;23,6;683
lunes;08/05/2017;20:30;20,6;768
martes;09/05/2017;21:30;19,9;785
miercoles;10/05/2017;20:15;18,1;787
jueves;11/05/2017;21:00;16,13;786
viernes;12/05/2017;19:45;16,9;779
sabado;13/05/2017;20:30;20;727
domingo;14/05/2017;21:00;21,9;702
lunes;15/05/2017;20:15;28,8;765
martes;16/05/2017;21:00;20,2;775
miercoles;17/05/2017;20:00;18,4;776
jueves;18/05/2017;20:00;13,6;805
viernes;19/05/2017;20:15;15,6;806
sabado;20/05/2017;20:45;18,9;760
domingo;21/05/2017;21:45;21,3;739
lunes;22/05/2017;20:15;20,3;805
martes;23/05/2017;20:30;15,7;835
miercoles;24/05/2017;19:45;12,9;834
jueves;25/05/2017;21:30;15,8;787
viernes;26/05/2017;20:15;17,4;832
sabado;27/05/2017;21:00;12,5;803
domingo;28/05/2017;21:15;15,3;776
lunes;29/05/2017;20:30;17,8;839
martes;30/05/2017;21:00;20,6;838
miercoles;31/05/2017;20:00;19,8;833
jueves;01/06/2017;20:00;18,9;825
viernes;02/06/2017;21:00;16,8;819
sabado;03/06/2017;21:00;19,8;778
domingo;04/06/2017;21:45;13;781
lunes;05/06/2017;21:00;15,7;848
martes;06/06/2017;20:30;16,2;875
miercoles;07/06/2017;20:00;16,1;873
jueves;08/06/2017;20:15;13,8;870
viernes;09/06/2017;20:00;22,6;832
sabado;10/06/2017;21:15;22,7;786
domingo;11/06/2017;21:30;16;785
lunes;12/06/2017;20:45;17;843
martes;13/06/2017;20:45;18,5;861
miercoles;14/06/2017;20:30;18,6;863
jueves;15/06/2017;21:00;19,7;844
viernes;16/06/2017;22:00;22,2;852
sabado;17/06/2017;20:45;21,8;770
domingo;18/06/2017;21:15;11,5;787
lunes;19/06/2017;19:45;12,8;879
martes;20/06/2017;21:15;12,9;862
miercoles;21/06/2017;20:45;14,8;895
jueves;22/06/2017;20:45;19,2;862
viernes;23/06/2017;20:45;18;840
sabado;24/06/2017;20:30;14,6;807
domingo;25/06/2017;21:15;19,3;766
lunes;26/06/2017;20:15;13,4;849
martes;27/06/2017;20:15;12,7;863
miercoles;28/06/2017;20:30;12,8;879
jueves;29/06/2017;21:30;18,8;853
viernes;30/06/2017;20:30;20,3;818
sabado;01/07/2017;20:45;19,2;786
domingo;02/07/2017;21:15;18,6;751
lunes;03/07/2017;20:15;17,1;821
martes;04/07/2017;20:15;13,9;852
miercoles;05/07/2017;20:15;15,2;850
jueves;06/07/2017;20:45;17,2;831
viernes;07/07/2017;20:00;14,4;840
sabado;08/07/2017;20:30;11,3;806
domingo;09/07/2017;21:15;18,2;769
lunes;10/07/2017;20:30;9,9;857
martes;11/07/2017;20:15;13;853
miercoles;12/07/2017;20:45;13,3;858
jueves;13/07/2017;21:15;18,4;824
viernes;14/07/2017;20:45;18,9;809
sabado;15/07/2017;20:45;12,9;813
domingo;16/07/2017;21:15;7,6;824
lunes;17/07/2017;21:15;13,3;895
martes;18/07/2017;21:30;15,2;874
miercoles;19/07/2017;20:45;19,4;869
jueves;20/07/2017;20:45;24,6;828
viernes;21/07/2017;20:15;21,7;820
sabado;22/07/2017;20:45;20,3;779
domingo;23/07/2017;21:15;18,6;761
lunes;24/07/2017;20:30;18,1;808
martes;25/07/2017;21:30;18,3;806
miercoles;26/07/2017;22:00;20,2;827
jueves;27/07/2017;20:30;20,9;820
viernes;28/07/2017;20:15;21;799
sabado;29/07/2017;20:45;16;787
domingo;30/07/2017;21:30;10,7;795
lunes;31/07/2017;21:30;13,2;858
martes;01/08/2017;21:00;13,8;866
miercoles;02/08/2017;21:15;21,5;840
jueves;03/08/2017;21:15;21,2;829
viernes;04/08/2017;21:00;20,2;813
sabado;05/08/2017;21:15;21,9;760
domingo;06/08/2017;21:15;23,2;736
lunes;07/08/2017;22:00;19,6;789
martes;08/08/2017;20:45;16,5;831
miercoles;09/08/2017;20:30;18,8;824
jueves;10/08/2017;20:15;15,1;835
viernes;11/08/2017;21:00;13,1;852
sabado;12/08/2017;21:45;15,9;796
domingo;13/08/2017;21:45;19,5;766
lunes;14/08/2017;21:15;22,9;806
martes;15/08/2017;21:15;23,4;803
miercoles;16/08/2017;21:15;21,4;808
jueves;17/08/2017;21:00;24,1;792
viernes;18/08/2017;20:30;25,3;774
sabado;19/08/2017;21:30;21,8;741
domingo;20/08/2017;21:30;18,5;711
lunes;21/08/2017;21:30;22,5;743
martes;22/08/2017;21:00;23,4;792
miercoles;23/08/2017;20:45;17,6;826
jueves;24/08/2017;21:45;23,7;810
viernes;25/08/2017;20:15;18,4;815
sabado;26/08/2017;20:45;19,6;772
domingo;27/08/2017;21:45;23,4;731
lunes;28/08/2017;20:45;14,3;843
martes;29/08/2017;21:15;12,3;862
miercoles;30/08/2017;20:30;17,4;833
jueves;31/08/2017;21:15;21,4;809
viernes;01/09/2017;21:00;27,3;773
sabado;02/09/2017;20:45;18,2;757
domingo;03/09/2017;22:00;16,7;762
lunes;04/09/2017;21:45;17,9;794
martes;05/09/2017;21:30;21;795
miercoles;06/09/2017;20:45;21,5;804
jueves;07/09/2017;21:30;22,5;793
viernes;08/09/2017;21:00;24,1;781
sabado;09/09/2017;20:30;12,6;797
domingo;10/09/2017;21:30;16,7;741
lunes;11/09/2017;20:45;16,4;829
martes;12/09/2017;21:30;21,6;804
miercoles;13/09/2017;21:15;24,4;789
jueves;14/09/2017;20:30;21,5;796
viernes;15/09/2017;21:15;18,2;789
sabado;16/09/2017;21:00;21,8;742
domingo;17/09/2017;22:15;26,1;697
lunes;18/09/2017;21:00;28,8;768
martes;19/09/2017;21:00;30,3;790
miercoles;20/09/2017;12:00;19,6;823
jueves;21/09/2017;21:15;23,2;790
viernes;22/09/2017;20:30;28,8;780
sabado;23/09/2017;20:45;27,6;739
domingo;24/09/2017;21:00;28,4;699
lunes;25/09/2017;21:15;25,2;773
martes;26/09/2017;20:30;18,2;812
miercoles;27/09/2017;21:30;13,7;841
jueves;28/09/2017;12:00;16,5;846
viernes;29/09/2017;11:00;25;799
domingo;01/10/2017;22:15;22,2;709
lunes;02/10/2017;21:15;23,3;779
martes;03/10/2017;21:30;28,6;784
miercoles;04/10/2017;10:00;31;740
jueves;05/10/2017;20:15;27,4;766
viernes;06/10/2017;20:45;25,7;777
sabado;07/10/2017;21:00;27,8;750
domingo;08/10/2017;21:30;21,6;709
lunes;09/10/2017;21:00;26;768
martes;10/10/2017;20:30;23,3;760
miercoles;11/10/2017;20:45;11,3;812
jueves;12/10/2017;21:00;12,9;820
viernes;13/10/2017;20:45;22,5;754
sabado;14/10/2017;21:00;27,2;712
domingo;15/10/2017;21:15;29,3;654
lunes;16/10/2017;21:00;33,3;702
martes;17/10/2017;21:00;31,8;780
miercoles;18/10/2017;21:00;26,7;784
jueves;19/10/2017;21:15;25,3;791
viernes;20/10/2017;20:45;25,3;781
sabado;21/10/2017;20:45;22,5;726
domingo;22/10/2017;21:30;26,4;693
lunes;23/10/2017;21:30;29,8;777
martes;24/10/2017;21:30;28,1;812
miercoles;25/10/2017;20:45;29,8;817
jueves;26/10/2017;21:00;27,8;807
viernes;27/10/2017;12:00;27,6;791
sabado;28/10/2017;21:00;33,7;735
domingo;29/10/2017;21:30;23;695
lunes;30/10/2017;21:15;27;779
martes;31/10/2017;21:00;28,5;789
miercoles;01/11/2017;21:15;28,8;789
jueves;02/11/2017;21:15;24,9;768
viernes;03/11/2017;12:00;23,9;766
sabado;04/11/2017;21:30;26;725
domingo;05/11/2017;21:30;30,2;713
lunes;06/11/2017;20:30;28,7;784
martes;07/11/2017;21:45;25,6;769
miercoles;08/11/2017;21:15;26;763
jueves;09/11/2017;21:15;30,5;788
viernes;10/11/2017;21:00;29,2;783
sabado;11/11/2017;21:00;33,3;776
domingo;12/11/2017;21:15;37,1;780
lunes;13/11/2017;21:00;37,1;913
martes;14/11/2017;21:30;35,9;943
miercoles;15/11/2017;12:00;26,1;841
jueves;16/11/2017;21:00;28,3;827
viernes;17/11/2017;12:00;27,5;792
sabado;18/11/2017;21:00;27,2;759
domingo;19/11/2017;21:30;30,3;728
lunes;20/11/2017;21:30;27,8;741
martes;21/11/2017;21:30;29,1;801
miercoles;22/11/2017;21:30;33,8;849
jueves;23/11/2017;13:00;33,6;869
viernes;24/11/2017;21:45;29,3;826
sabado;25/11/2017;21:15;32,7;814
domingo;26/11/2017;22:15;36,9;834
lunes;27/11/2017;21:15;28;827
martes;28/11/2017;21:45;31,7;857
miercoles;29/11/2017;12:00;31,2;916
jueves;30/11/2017;21:30;35,1;924
viernes;01/12/2017;12:00;24,7;825
sabado;02/12/2017;21:30;24,1;721
domingo;03/12/2017;22:00;25,5;685
lunes;04/12/2017;21:15;22;751
martes;05/12/2017;21:30;28,8;768
miercoles;06/12/2017;21:30;32;810
jueves;07/12/2017;21:15;34,4;832
viernes;08/12/2017;21:45;31,8;789
sabado;09/12/2017;21:15;33,1;820
domingo;10/12/2017;22:00;35;796
lunes;11/12/2017;21:45;31,8;867
martes;12/12/2017;13:00;34,8;950
miercoles;13/12/2017;21:30;34,8;865
jueves;14/12/2017;21:30;35,5;919
viernes;15/12/2017;21:15;35,3;943
sabado;16/12/2017;13:00;38,4;960
domingo;17/12/2017;1:00;27;814
lunes;18/12/2017;21:45;32,2;857
martes;19/12/2017;21:45;35,2;932
miercoles;20/12/2017;13:00;38,2;1030
jueves;21/12/2017;21:30;31,5;933
viernes;22/12/2017;14:00;36,5;1008
sabado;23/12/2017;1:00;26,5;810
domingo;24/12/2017;21:30;33;826
lunes;25/12/2017;23:30;36,3;838
martes;26/12/2017;17:30;34,1;964
miercoles;27/12/2017;22:00;33,2;955
jueves;28/12/2017;13:00;37,3;1039
viernes;29/12/2017;14:00;38,4;1108
sabado;30/12/2017;1:00;35,2;971
domingo;31/12/2017;1:00;31,1;826
